Flag for Russia Weather past 2 weeks in Gelendzhik, Russia

Now
70 °F

Mild.


Feels Like: 70 °F
Forecast: 69 / 96 °F
Wind: 1 mph from East

Location: Anapa / Vitiazevo

Current Time: Jul 30, 2015 at 5:30:01 AM

Latest Report: Jul 30, 2015 at 5:00 AM


Visibility: 1 mi

Pressure: 29.86 "Hg

Humidity: 100%

Dew point: 70 °F

Location of GelendzhikLocation

Historic Weather in Gelendzhik — Graph

°F

Gelendzhik temperature yesterday

Maximum temperature yesterday: 84 °F (at 1:30 PM)
Minimum temperature yesterday: 68 °F (at 12:00 AM)
Average temperature yesterday: 77 °F

Past Weeks' High & Low Weather Summary

 TemperatureHumidityPressure
High91 °F (Jul 24, 2:00 PM)100% (Jul 15, 6:00 AM)30.07 "Hg (Jul 15, 6:00 AM)
Low55 °F (Jul 19, 4:00 AM)32% (Jul 24, 4:00 PM)29.65 "Hg (Jul 26, 2:00 AM)
Average75 °F72%29.89 "Hg
* Reported Jul 15 4:00 AM — Jul 30 4:00 AM, Gelendzhik, Weather by CustomWeather, © 2015

Note: Actual official high and low records may vary slightly from our data, if they occured in-between our weather recording intervals... More about our weather records

Advertising

Gelendzhik weather history for previous 24 hours

 ConditionsComfort  
Time TempWeatherWind HumidityBarometerVisibility
4:00 AM
Thu, Jul 30
72 °FMild.3 mph94%29.86 "Hg0 mi
3:00 AM70 °FMild.3 mph94%29.89 "Hg0 mi
2:00 AM66 °FFog.3 mph100%29.89 "Hg0 mi
1:00 AM68 °FMild.1 mph100%29.89 "Hg1 mi
12:00 AM70 °FMild.3 mph94%29.89 "Hg1 mi
11:30 PM
Wed, Jul 29
70 °FFog.3 mph94%29.89 "Hg2 mi
11:00 PM70 °FFog.3 mph94%29.89 "Hg2 mi
10:30 PM70 °FFog.3 mph94%29.89 "Hg2 mi
10:00 PM70 °FFog.3 mph94%29.89 "Hg3 mi
9:30 PM72 °FFog.3 mph94%29.89 "Hg3 mi
9:00 PM72 °FPassing clouds.3 mph94%29.89 "Hg4 mi
8:30 PM75 °FPassing clouds.1 mph89%29.86 "Hg6 mi
8:00 PM77 °FPassing clouds.6 mph89%29.86 "HgN/A
7:30 PM79 °FPassing clouds.6 mph84%29.86 "HgN/A
7:00 PM79 °FPassing clouds.6 mph84%29.86 "HgN/A
6:30 PM81 °FPassing clouds.6 mph79%29.86 "HgN/A
6:00 PM81 °FPassing clouds.8 mph79%29.86 "HgN/A
5:30 PM82 °FPassing clouds.8 mph74%29.86 "HgN/A
5:00 PM82 °FScattered clouds.10 mph74%29.86 "HgN/A
4:30 PM82 °FScattered clouds.13 mph74%29.86 "HgN/A
4:00 PM82 °FScattered clouds.13 mph74%29.86 "HgN/A
3:30 PM82 °FScattered clouds.10 mph74%29.86 "HgN/A
3:00 PM82 °FScattered clouds.10 mph74%29.86 "HgN/A
2:30 PM82 °FScattered clouds.10 mph74%29.86 "HgN/A
2:00 PM82 °FScattered clouds.10 mph74%29.86 "HgN/A
1:30 PM84 °FScattered clouds.10 mph70%29.86 "HgN/A
1:00 PM82 °FPartly sunny.13 mph74%29.86 "HgN/A
12:30 PM82 °FPartly sunny.13 mph74%29.86 "HgN/A
12:00 PM81 °FPartly sunny.13 mph79%29.89 "HgN/A
11:30 AM82 °FPartly sunny.13 mph74%29.89 "HgN/A
10:30 AM82 °FPartly sunny.15 mph74%29.86 "HgN/A
10:00 AM81 °FScattered clouds.15 mph79%29.86 "HgN/A
9:30 AM81 °FScattered clouds.13 mph74%29.86 "HgN/A
9:00 AM81 °FScattered clouds.10 mph79%29.86 "HgN/A
8:30 AM79 °FScattered clouds.13 mph79%29.83 "HgN/A
8:00 AM79 °FPassing clouds.10 mph84%29.83 "HgN/A
7:30 AM77 °FSunny.8 mph83%29.83 "Hg10 mi
6:30 AM73 °FPassing clouds.6 mph89%29.83 "HgN/A
6:00 AM72 °FPartly cloudy.6 mph88%29.83 "HgN/A
5:30 AM70 °FPartly cloudy.6 mph94%29.83 "HgN/A
5:00 AM70 °FPartly cloudy.1 mph94%29.83 "HgN/A
Weather by CustomWeather, © 2015

See weather overviewHow to use our weather pages